Location: Eyeline Observatory
(43.2182°N, 78.8632°W)
Time: 17:48:00
(UTC-05:00)

HO-68 - Visible Passes

Search period start: 22 February 2018 00:00
Search period end: 04 March 2018 00:00
Orbit: 1193 x 1204 km, 100.1° (Epoch: 22 February)

Date Brightness Start Highest point End Pass type
(mag) Time Alt. Az. Time Alt. Az. Time Alt. Az.
22 Feb ? 19:13:19 10° SSW 19:19:51 38° W 19:26:26 10° NNW visible
23 Feb ? 18:55:56 10° S 19:02:48 49° W 19:09:44 10° NNW visible
24 Feb ? 06:22:25 10° NE 06:28:43 32° E 06:35:00 10° SSE visible
24 Feb ? 18:38:43 10° S 18:45:47 64° WSW 18:52:55 10° NNW visible
25 Feb ? 06:05:56 10° NE 06:11:36 24° E 06:17:14 10° SE visible
25 Feb ? 18:21:41 10° SSE 18:28:50 81° WSW 18:36:03 10° NNW visible
25 Feb ? 20:14:02 10° WSW 20:17:36 14° W 20:21:11 10° WNW visible
26 Feb ? 05:49:43 10° NE 05:54:27 18° E 05:59:09 10° SE visible
26 Feb ? 19:55:30 10° SW 20:00:23 19° W 20:05:19 10° NW visible
27 Feb ? 05:34:00 10° ENE 05:37:13 13° E 05:40:25 10° ESE visible
27 Feb ? 19:37:29 10° SSW 19:43:14 26° W 19:49:02 10° NW visible
28 Feb ? 19:19:47 10° SSW 19:26:07 34° W 19:32:31 10° NNW visible
01 Mar ? 19:02:19 10° S 19:09:04 44° W 19:15:52 10° NNW visible
02 Mar ? 18:45:02 10° S 18:52:02 57° WSW 18:59:06 10° NNW visible
03 Mar ? 06:11:57 10° NE 06:17:55 27° E 06:23:51 10° SSE visible
03 Mar ? 18:27:56 10° S 18:35:04 74° WSW 18:42:15 10° NNW visible
03 Mar ? 20:21:15 10° WSW 20:23:58 12° W 20:26:41 10° WNW visible
